owner,sensor,date,latitude,longitude,vertical_datum,direction_of_sea_water_velocity,sea_water_speed,upward_sea_water_velocity,qcFlag 
TABS,ioos:station:wmo:42045:1,2006-03-01T00:00:00Z,26.2168,-96.4998,2.0,353.029476,10.1349149,-99999.0,'11111222,11111222,99999999' 
TABS,ioos:station:wmo:42045:1,2006-03-01T00:30:00Z,26.2168,-96.4998,2.0,348.4975528,9.327336168,-99999.0,'11133222,11111222,99999999' 
TABS,ioos:station:wmo:42045:1,2006-03-01T01:00:00Z,26.2168,-96.4998,2.0,350.4453937,10.18124256,-99999.0,'11111222,11111222,99999999' 
TABS,ioos:station:wmo:42045:1,2006-03-01T01:30:00Z,26.2168,-96.4998,2.0,340.7141786,6.812297703,-99999.0,'11133222,11111222,99999999' 
TABS,ioos:station:wmo:42045:1,2006-03-01T02:00:00Z,26.2168,-96.4998,2.0,341.0126308,8.851626969,-99999.0,'11133222,11111222,99999999' 
TABS,ioos:station:wmo:42045:1,2006-03-01T02:30:00Z,26.2168,-96.4998,2.0,333.2320462,6.305751343,-99999.0,'11133222,11111222,99999999' 
TABS,ioos:station:wmo:42045:1,2006-03-01T03:00:00Z,26.2168,-96.4998,2.0,314.8128715,6.484203883,-99999.0,'11133222,11111222,99999999' 
TABS,ioos:station:wmo:42045:1,2006-03-01T03:30:00Z,26.2168,-96.4998,2.0,308.702206,6.381261631,-99999.0,'11133222,11111222,99999999' 
TABS,ioos:station:wmo:42045:1,2006-03-01T04:00:00Z,26.2168,-96.4998,2.0,321.6655537,7.432428943,-99999.0,'11133222,11111222,99999999' 
TABS,ioos:station:wmo:42045:1,2006-03-01T04:30:00Z,26.2168,-96.4998,2.0,300.1796181,8.016595287,-99999.0,'11133222,11111222,99999999' 
TABS,ioos:station:wmo:42045:1,2006-03-01T05:00:00Z,26.2168,-96.4998,2.0,318.6332579,8.927485648,-99999.0,'11133222,11111222,99999999' 
TABS,ioos:station:wmo:42045:1,2006-03-01T05:30:00Z,26.2168,-96.4998,2.0,305.8922473,8.085177796,-99999.0,'11133222,11111222,99999999' 
TABS,ioos:station:wmo:42045:1,2006-03-01T06:00:00Z,26.2168,-96.4998,2.0,289.9577761,9.521817053,-99999.0,'11133222,11111222,99999999' 
TABS,ioos:station:wmo:42045:1,2006-03-01T06:30:00Z,26.2168,-96.4998,2.0,315.0426628,9.567157363,-99999.0,'11133222,11111222,99999999' 
TABS,ioos:station:wmo:42045:1,2006-03-01T07:00:00Z,26.2168,-96.4998,2.0,299.7597489,9.791302263,-99999.0,'11133222,11111222,99999999' 
TABS,ioos:station:wmo:42045:1,2006-03-01T07:30:00Z,26.2168,-96.4998,2.0,317.0493753,7.910511994,-99999.0,'11133222,11111222,99999999' 
TABS,ioos:station:wmo:42045:1,2006-03-01T08:00:00Z,26.2168,-96.4998,2.0,314.1482123,8.083124396,-99999.0,'11133222,11111222,99999999' 
TABS,ioos:station:wmo:42045:1,2006-03-01T08:30:00Z,26.2168,-96.4998,2.0,301.6264529,10.08822085,-99999.0,'11111222,11111222,99999999' 
TABS,ioos:station:wmo:42045:1,2006-03-01T09:00:00Z,26.2168,-96.4998,2.0,329.5598243,6.94769746,-99999.0,'11133222,11111222,99999999' 
TABS,ioos:station:wmo:42045:1,2006-03-01T09:30:00Z,26.2168,-96.4998,2.0,0.177048309,6.480030864,-99999.0,'11133222,11111222,99999999' 
TABS,ioos:station:wmo:42045:1,2006-03-01T10:00:00Z,26.2168,-96.4998,2.0,3.678440579,7.014449373,-99999.0,'11133222,11111222,99999999' 
TABS,ioos:station:wmo:42045:1,2006-03-01T10:30:00Z,26.2168,-96.4998,2.0,347.4161674,4.498055135,-99999.0,'11133222,11111222,99999999' 
TABS,ioos:station:wmo:42045:1,2006-03-01T11:00:00Z,26.2168,-96.4998,2.0,25.72121726,5.161404848,-99999.0,'11133222,11111222,99999999' 
TABS,ioos:station:wmo:42045:1,2006-03-01T11:30:00Z,26.2168,-96.4998,2.0,18.03963914,7.330334235,-99999.0,'11133222,11111222,99999999' 
TABS,ioos:station:wmo:42045:1,2006-03-01T12:00:00Z,26.2168,-96.4998,2.0,14.08819426,8.052186039,-99999.0,'11133222,11111222,99999999' 
TABS,ioos:station:wmo:42045:1,2006-03-01T12:30:00Z,26.2168,-96.4998,2.0,33.27220816,5.322490019,-99999.0,'11133222,11111222,99999999' 
TABS,ioos:station:wmo:42045:1,2006-03-01T13:00:00Z,26.2168,-96.4998,2.0,46.64548819,7.880418771,-99999.0,'11133222,11111222,99999999' 
TABS,ioos:station:wmo:42045:1,2006-03-01T13:30:00Z,26.2168,-96.4998,2.0,46.84771117,5.702245172,-99999.0,'11133222,11111222,99999999' 
TABS,ioos:station:wmo:42045:1,2006-03-01T14:00:00Z,26.2168,-96.4998,2.0,47.47269928,6.228338462,-99999.0,'11133222,11111222,99999999' 
TABS,ioos:station:wmo:42045:1,2006-03-01T14:30:00Z,26.2168,-96.4998,2.0,31.55307802,5.503680587,-99999.0,'11133222,11111222,99999999' 
TABS,ioos:station:wmo:42045:1,2006-03-01T15:00:00Z,26.2168,-96.4998,2.0,27.84533608,4.003560915,-99999.0,'11133222,11111222,99999999' 
TABS,ioos:station:wmo:42045:1,2006-03-01T16:00:00Z,26.2168,-96.4998,2.0,18.14079182,7.387178081,-99999.0,'11133222,11111222,99999999' 
TABS,ioos:station:wmo:42045:1,2006-03-01T16:30:00Z,26.2168,-96.4998,2.0,14.67073983,6.791413697,-99999.0,'11133222,11111222,99999999' 
TABS,ioos:station:wmo:42045:1,2006-03-01T17:00:00Z,26.2168,-96.4998,2.0,358.8919508,6.721257323,-99999.0,'11133222,11111222,99999999' 
TABS,ioos:station:wmo:42045:1,2006-03-01T17:30:00Z,26.2168,-96.4998,2.0,2.096209246,9.296219662,-99999.0,'11133222,11111222,99999999' 
TABS,ioos:station:wmo:42045:1,2006-03-01T18:00:00Z,26.2168,-96.4998,2.0,358.3498921,8.333456666,-99999.0,'11133222,11111222,99999999' 
TABS,ioos:station:wmo:42045:1,2006-03-01T18:30:00Z,26.2168,-96.4998,2.0,353.3651411,10.29898053,-99999.0,'11111222,11111222,99999999' 
TABS,ioos:station:wmo:42045:1,2006-03-01T19:00:00Z,26.2168,-96.4998,2.0,357.21556,12.14434025,-99999.0,'11111222,11111222,99999999' 
TABS,ioos:station:wmo:42045:1,2006-03-01T19:30:00Z,26.2168,-96.4998,2.0,5.078830198,12.99100073,-99999.0,'11111222,11111222,99999999' 
TABS,ioos:station:wmo:42045:1,2006-03-01T20:00:00Z,26.2168,-96.4998,2.0,6.552164674,13.14585866,-99999.0,'11111222,11111222,99999999' 
TABS,ioos:station:wmo:42045:1,2006-03-01T20:30:00Z,26.2168,-96.4998,2.0,6.791290786,12.76959279,-99999.0,'11111222,11111222,99999999' 
TABS,ioos:station:wmo:42045:1,2006-03-01T21:00:00Z,26.2168,-96.4998,2.0,8.529190678,16.04747021,-99999.0,'11111222,11111222,99999999' 
TABS,ioos:station:wmo:42045:1,2006-03-01T22:00:00Z,26.2168,-96.4998,2.0,22.68030197,19.01001052,-99999.0,'11111222,11111222,99999999' 
TABS,ioos:station:wmo:42045:1,2006-03-01T22:30:00Z,26.2168,-96.4998,2.0,29.21325154,20.71469285,-99999.0,'11111222,11111222,99999999' 
TABS,ioos:station:wmo:42045:1,2006-03-01T23:00:00Z,26.2168,-96.4998,2.0,31.8297419,15.54812207,-99999.0,'11111222,11111222,99999999' 
TABS,ioos:station:wmo:42045:1,2006-03-01T23:30:00Z,26.2168,-96.4998,2.0,36.09005509,16.16149746,-99999.0,'11111222,11111222,99999999' 
TABS,ioos:station:wmo:42045:1,2006-03-02T00:00:00Z,26.2168,-96.4998,2.0,38.82434374,13.60591416,-99999.0,'11111222,11111222,99999999' 
TABS,ioos:station:wmo:42045:1,2006-03-02T00:30:00Z,26.2168,-96.4998,2.0,44.6933498,11.88663535,-99999.0,'11111222,11111222,99999999' 
TABS,ioos:station:wmo:42045:1,2006-03-02T01:00:00Z,26.2168,-96.4998,2.0,38.74503764,10.51362925,-99999.0,'11111222,11111222,99999999' 
TABS,ioos:station:wmo:42045:1,2006-03-02T01:30:00Z,26.2168,-96.4998,2.0,35.72426173,7.50149985,-99999.0,'11133222,11111222,99999999' 
TABS,ioos:station:wmo:42045:1,2006-03-02T02:00:00Z,26.2168,-96.4998,2.0,33.54237795,5.37506279,-99999.0,'11133222,11111222,99999999' 
TABS,ioos:station:wmo:42045:1,2006-03-02T02:30:00Z,26.2168,-96.4998,2.0,28.2062357,6.558841361,-99999.0,'11133222,11111222,99999999' 
TABS,ioos:station:wmo:42045:1,2006-03-02T03:00:00Z,26.2168,-96.4998,2.0,19.95396302,6.681077757,-99999.0,'11133222,11111222,99999999' 
TABS,ioos:station:wmo:42045:1,2006-03-02T03:30:00Z,26.2168,-96.4998,2.0,3.991114225,5.603588136,-99999.0,'11133222,11111222,99999999' 
TABS,ioos:station:wmo:42045:1,2006-03-02T04:00:00Z,26.2168,-96.4998,2.0,346.7140267,5.743735718,-99999.0,'11133222,11111222,99999999' 
TABS,ioos:station:wmo:42045:1,2006-03-02T04:30:00Z,26.2168,-96.4998,2.0,340.2908258,5.544844452,-99999.0,'11133222,11111222,99999999' 
TABS,ioos:station:wmo:42045:1,2006-03-02T05:00:00Z,26.2168,-96.4998,2.0,325.2612883,9.090286024,-99999.0,'11133222,11111222,99999999' 
TABS,ioos:station:wmo:42045:1,2006-03-02T05:30:00Z,26.2168,-96.4998,2.0,296.9569459,7.853254103,-99999.0,'11133222,11111222,99999999' 
TABS,ioos:station:wmo:42045:1,2006-03-02T06:00:00Z,26.2168,-96.4998,2.0,319.9512569,9.340374725,-99999.0,'11133222,11111222,99999999' 
TABS,ioos:station:wmo:42045:1,2006-03-02T06:30:00Z,26.2168,-96.4998,2.0,310.192373,9.111311651,-99999.0,'11133222,11111222,99999999' 
TABS,ioos:station:wmo:42045:1,2006-03-02T07:00:00Z,26.2168,-96.4998,2.0,309.5096966,9.163721951,-99999.0,'11133222,11111222,99999999' 
TABS,ioos:station:wmo:42045:1,2006-03-02T07:30:00Z,26.2168,-96.4998,2.0,311.6737069,11.94194289,-99999.0,'11111222,11111222,99999999' 
TABS,ioos:station:wmo:42045:1,2006-03-02T08:00:00Z,26.2168,-96.4998,2.0,310.5098743,10.83785957,-99999.0,'11111222,11111222,99999999' 
TABS,ioos:station:wmo:42045:1,2006-03-02T08:30:00Z,26.2168,-96.4998,2.0,329.8923028,8.611904551,-99999.0,'11133222,11111222,99999999' 
TABS,ioos:station:wmo:42045:1,2006-03-02T09:00:00Z,26.2168,-96.4998,2.0,324.1140216,9.553407769,-99999.0,'11133222,11111222,99999999' 
TABS,ioos:station:wmo:42045:1,2006-03-02T09:30:00Z,26.2168,-96.4998,2.0,327.5908573,10.67232402,-99999.0,'11111222,11111222,99999999' 
TABS,ioos:station:wmo:42045:1,2006-03-02T10:00:00Z,26.2168,-96.4998,2.0,330.6689428,9.45169297,-99999.0,'11133222,11111222,99999999' 
TABS,ioos:station:wmo:42045:1,2006-03-02T10:30:00Z,26.2168,-96.4998,2.0,336.4993458,9.70499356,-99999.0,'11133222,11111222,99999999' 
TABS,ioos:station:wmo:42045:1,2006-03-02T11:00:00Z,26.2168,-96.4998,2.0,336.4150449,8.172698453,-99999.0,'11133222,11111222,99999999' 
TABS,ioos:station:wmo:42045:1,2006-03-02T11:30:00Z,26.2168,-96.4998,2.0,348.20061,8.949106101,-99999.0,'11133222,11111222,99999999' 
TABS,ioos:station:wmo:42045:1,2006-03-02T12:00:00Z,26.2168,-96.4998,2.0,0.054934077,10.47000478,-99999.0,'11111222,11111222,99999999' 
TABS,ioos:station:wmo:42045:1,2006-03-02T12:30:00Z,26.2168,-96.4998,2.0,340.8785748,7.387611251,-99999.0,'11133222,11111222,99999999' 
TABS,ioos:station:wmo:42045:1,2006-03-02T13:00:00Z,26.2168,-96.4998,2.0,336.1130218,10.05092036,-99999.0,'11111222,11111222,99999999' 
TABS,ioos:station:wmo:42045:1,2006-03-02T13:30:00Z,26.2168,-96.4998,2.0,347.5206491,8.838834765,-99999.0,'11133222,11111222,99999999' 
TABS,ioos:station:wmo:42045:1,2006-03-02T14:00:00Z,26.2168,-96.4998,2.0,358.6089319,9.472792619,-99999.0,'11133222,11111222,99999999' 
TABS,ioos:station:wmo:42045:1,2006-03-02T14:30:00Z,26.2168,-96.4998,2.0,357.486011,7.066802672,-99999.0,'11133222,11111222,99999999' 
TABS,ioos:station:wmo:42045:1,2006-03-02T15:00:00Z,26.2168,-96.4998,2.0,354.0723372,8.133492485,-99999.0,'11133222,11111222,99999999' 
TABS,ioos:station:wmo:42045:1,2006-03-02T16:00:00Z,26.2168,-96.4998,2.0,4.930441677,9.424871352,-99999.0,'11133222,11111222,99999999' 
TABS,ioos:station:wmo:42045:1,2006-03-02T16:30:00Z,26.2168,-96.4998,2.0,8.068486225,13.10976735,-99999.0,'11111222,11111222,99999999' 
TABS,ioos:station:wmo:42045:1,2006-03-02T17:00:00Z,26.2168,-96.4998,2.0,14.02592932,13.24487071,-99999.0,'11111222,11111222,99999999' 
TABS,ioos:station:wmo:42045:1,2006-03-02T17:30:00Z,26.2168,-96.4998,2.0,16.4563726,13.09647663,-99999.0,'11111222,11111222,99999999' 
TABS,ioos:station:wmo:42045:1,2006-03-02T18:00:00Z,26.2168,-96.4998,2.0,14.43896,17.60609554,-99999.0,'11111222,11111222,99999999' 
TABS,ioos:station:wmo:42045:1,2006-03-02T18:30:00Z,26.2168,-96.4998,2.0,22.9828145,18.46575479,-99999.0,'11111222,11111222,99999999' 
TABS,ioos:station:wmo:42045:1,2006-03-02T19:00:00Z,26.2168,-96.4998,2.0,27.95170239,17.5582744,-99999.0,'11111222,11111222,99999999' 
TABS,ioos:station:wmo:42045:1,2006-03-02T19:30:00Z,26.2168,-96.4998,2.0,29.34162537,17.26482262,-99999.0,'11111222,11111222,99999999' 
TABS,ioos:station:wmo:42045:1,2006-03-02T20:00:00Z,26.2168,-96.4998,2.0,28.41684457,18.40797925,-99999.0,'11111222,11111222,99999999' 
TABS,ioos:station:wmo:42045:1,2006-03-02T20:30:00Z,26.2168,-96.4998,2.0,30.49349755,14.62246217,-99999.0,'11111222,11111222,99999999' 
TABS,ioos:station:wmo:42045:1,2006-03-02T21:00:00Z,26.2168,-96.4998,2.0,33.34937127,17.71743774,-99999.0,'11111222,11111222,99999999' 
TABS,ioos:station:wmo:42045:1,2006-03-02T22:00:00Z,26.2168,-96.4998,2.0,39.69187882,19.33744813,-99999.0,'11111222,11111222,99999999' 
TABS,ioos:station:wmo:42045:1,2006-03-02T22:30:00Z,26.2168,-96.4998,2.0,40.15682048,19.4299614,-99999.0,'11111222,11111222,99999999' 
TABS,ioos:station:wmo:42045:1,2006-03-02T23:00:00Z,26.2168,-96.4998,2.0,46.75907278,20.04177886,-99999.0,'11111222,11111222,99999999' 
TABS,ioos:station:wmo:42045:1,2006-03-02T23:30:00Z,26.2168,-96.4998,2.0,47.24895719,17.83990191,-99999.0,'11111222,11111222,99999999' 
TABS,ioos:station:wmo:42045:1,2006-03-03T00:00:00Z,26.2168,-96.4998,2.0,53.77611769,16.49904846,-99999.0,'11111222,11111222,99999999' 
TABS,ioos:station:wmo:42045:1,2006-03-03T00:30:00Z,26.2168,-96.4998,2.0,57.44483141,15.6844509,-99999.0,'11111222,11111222,99999999' 
TABS,ioos:station:wmo:42045:1,2006-03-03T01:00:00Z,26.2168,-96.4998,2.0,65.98660467,12.55679099,-99999.0,'11111222,11111222,99999999' 
TABS,ioos:station:wmo:42045:1,2006-03-03T01:30:00Z,26.2168,-96.4998,2.0,60.47258216,11.76850033,-99999.0,'11111222,11111222,99999999' 
TABS,ioos:station:wmo:42045:1,2006-03-03T02:00:00Z,26.2168,-96.4998,2.0,58.00051141,10.43567918,-99999.0,'11111222,11111222,99999999' 
TABS,ioos:station:wmo:42045:1,2006-03-03T02:30:00Z,26.2168,-96.4998,2.0,64.07444472,10.01820842,-99999.0,'11111222,11111222,99999999' 
TABS,ioos:station:wmo:42045:1,2006-03-03T03:00:00Z,26.2168,-96.4998,2.0,52.72063299,5.316135815,-99999.0,'11133222,11111222,99999999' 
TABS,ioos:station:wmo:42045:1,2006-03-03T03:30:00Z,26.2168,-96.4998,2.0,54.08559618,6.716933824,-99999.0,'11133222,11111222,99999999' 
TABS,ioos:station:wmo:42045:1,2006-03-03T04:00:00Z,26.2168,-96.4998,2.0,56.17799387,4.814810484,-99999.0,'11133222,11111222,99999999' 
TABS,ioos:station:wmo:42045:1,2006-03-03T04:30:00Z,26.2168,-96.4998,2.0,62.82400589,5.451843725,-99999.0,'11133222,11111222,99999999' 
TABS,ioos:station:wmo:42045:1,2006-03-03T05:00:00Z,26.2168,-96.4998,2.0,37.59552275,5.212417865,-99999.0,'11133222,11111222,99999999' 
TABS,ioos:station:wmo:42045:1,2006-03-03T05:30:00Z,26.2168,-96.4998,2.0,49.7978471,5.918006421,-99999.0,'11133222,11111222,99999999' 
TABS,ioos:station:wmo:42045:1,2006-03-03T06:00:00Z,26.2168,-96.4998,2.0,37.42850533,3.488165707,-99999.0,'11133222,11111222,99999999' 
TABS,ioos:station:wmo:42045:1,2006-03-03T06:30:00Z,26.2168,-96.4998,2.0,10.31960446,3.516887829,-99999.0,'11133222,11111222,99999999' 
TABS,ioos:station:wmo:42045:1,2006-03-03T07:00:00Z,26.2168,-96.4998,2.0,359.6104502,2.940068026,-99999.0,'11133222,11144222,99999999' 
TABS,ioos:station:wmo:42045:1,2006-03-03T07:30:00Z,26.2168,-96.4998,2.0,340.3131403,2.315340148,-99999.0,'11133222,11111222,99999999' 
TABS,ioos:station:wmo:42045:1,2006-03-03T08:00:00Z,26.2168,-96.4998,2.0,350.4286372,5.172001547,-99999.0,'11133222,11111222,99999999' 
TABS,ioos:station:wmo:42045:1,2006-03-03T08:30:00Z,26.2168,-96.4998,2.0,320.3148489,3.053686297,-99999.0,'11133222,11111222,99999999' 
TABS,ioos:station:wmo:42045:1,2006-03-03T09:00:00Z,26.2168,-96.4998,2.0,336.6953744,4.246457347,-99999.0,'11133222,11111222,99999999' 
TABS,ioos:station:wmo:42045:1,2006-03-03T09:30:00Z,26.2168,-96.4998,2.0,303.7376054,3.367031333,-99999.0,'11133222,11111222,99999999' 
TABS,ioos:station:wmo:42045:1,2006-03-03T10:00:00Z,26.2168,-96.4998,2.0,291.2508767,2.31758495,-99999.0,'11133222,11111222,99999999' 
TABS,ioos:station:wmo:42045:1,2006-03-03T10:30:00Z,26.2168,-96.4998,2.0,300.6882857,3.918788078,-99999.0,'11133222,11111222,99999999' 
TABS,ioos:station:wmo:42045:1,2006-03-03T11:00:00Z,26.2168,-96.4998,2.0,294.5961349,3.123395588,-99999.0,'11133222,11111222,99999999' 
TABS,ioos:station:wmo:42045:1,2006-03-03T11:30:00Z,26.2168,-96.4998,2.0,302.705078,5.644909211,-99999.0,'11133222,11111222,99999999' 
TABS,ioos:station:wmo:42045:1,2006-03-03T12:00:00Z,26.2168,-96.4998,2.0,308.2024491,2.150581317,-99999.0,'11133222,11111222,99999999' 
TABS,ioos:station:wmo:42045:1,2006-03-03T12:30:00Z,26.2168,-96.4998,2.0,303.7352069,3.547308839,-99999.0,'11133222,11111222,99999999' 
TABS,ioos:station:wmo:42045:1,2006-03-03T13:00:00Z,26.2168,-96.4998,2.0,312.5107686,2.604611295,-99999.0,'11133222,11111222,99999999' 
TABS,ioos:station:wmo:42045:1,2006-03-03T13:30:00Z,26.2168,-96.4998,2.0,294.5602545,4.090036675,-99999.0,'11133222,11111222,99999999' 
TABS,ioos:station:wmo:42045:1,2006-03-03T14:00:00Z,26.2168,-96.4998,2.0,296.6159798,5.066932011,-99999.0,'11133222,11111222,99999999' 
TABS,ioos:station:wmo:42045:1,2006-03-03T14:30:00Z,26.2168,-96.4998,2.0,319.8179478,3.115204648,-99999.0,'11133222,11111222,99999999' 
TABS,ioos:station:wmo:42045:1,2006-03-03T15:00:00Z,26.2168,-96.4998,2.0,313.6031379,4.35,-99999.0,'11133222,11111222,99999999' 
TABS,ioos:station:wmo:42045:1,2006-03-03T16:00:00Z,26.2168,-96.4998,2.0,289.05065,5.300283011,-99999.0,'11133222,11111222,99999999' 
TABS,ioos:station:wmo:42045:1,2006-03-03T16:30:00Z,26.2168,-96.4998,2.0,291.4597685,6.532878386,-99999.0,'11133222,11111222,99999999' 
TABS,ioos:station:wmo:42045:1,2006-03-03T17:00:00Z,26.2168,-96.4998,2.0,292.4505105,6.232335036,-99999.0,'11133222,11111222,99999999' 
TABS,ioos:station:wmo:42045:1,2006-03-03T17:30:00Z,26.2168,-96.4998,2.0,290.3356424,8.201134068,-99999.0,'11133222,11111222,99999999' 
TABS,ioos:station:wmo:42045:1,2006-03-03T18:00:00Z,26.2168,-96.4998,2.0,287.5194885,8.90294895,-99999.0,'11133222,11111222,99999999' 
TABS,ioos:station:wmo:42045:1,2006-03-03T18:30:00Z,26.2168,-96.4998,2.0,300.964105,7.696856501,-99999.0,'11133222,11111222,99999999' 
TABS,ioos:station:wmo:42045:1,2006-03-03T19:00:00Z,26.2168,-96.4998,2.0,296.7862621,8.121459228,-99999.0,'11133222,11111222,99999999' 
TABS,ioos:station:wmo:42045:1,2006-03-03T19:30:00Z,26.2168,-96.4998,2.0,298.9119417,6.225961773,-99999.0,'11133222,11111222,99999999' 
TABS,ioos:station:wmo:42045:1,2006-03-03T20:00:00Z,26.2168,-96.4998,2.0,296.8427726,6.466784363,-99999.0,'11133222,11111222,99999999' 
TABS,ioos:station:wmo:42045:1,2006-03-03T20:30:00Z,26.2168,-96.4998,2.0,304.302006,7.275307554,-99999.0,'11133222,11111222,99999999' 
TABS,ioos:station:wmo:42045:1,2006-03-03T21:00:00Z,26.2168,-96.4998,2.0,301.2079148,6.851430508,-99999.0,'11133222,11111222,99999999' 
TABS,ioos:station:wmo:42045:1,2006-03-03T22:00:00Z,26.2168,-96.4998,2.0,278.8422148,8.652826128,-99999.0,'11133222,11111222,99999999' 
TABS,ioos:station:wmo:42045:1,2006-03-03T22:30:00Z,26.2168,-96.4998,2.0,291.2027506,10.47936067,-99999.0,'11111222,11111222,99999999' 
TABS,ioos:station:wmo:42045:1,2006-03-03T23:00:00Z,26.2168,-96.4998,2.0,287.9399876,10.97351357,-99999.0,'11111222,11111222,99999999' 
TABS,ioos:station:wmo:42045:1,2006-03-03T23:30:00Z,26.2168,-96.4998,2.0,296.6421794,10.01312139,-99999.0,'11111222,11111222,99999999' 
TABS,ioos:station:wmo:42045:1,2006-03-04T00:00:00Z,26.2168,-96.4998,2.0,276.4570259,4.891022388,-99999.0,'11133222,11111222,99999999' 
TABS,ioos:station:wmo:42045:1,2006-03-04T00:30:00Z,26.2168,-96.4998,2.0,284.6823543,4.734596076,-99999.0,'11133222,11111222,99999999' 
TABS,ioos:station:wmo:42045:1,2006-03-04T01:00:00Z,26.2168,-96.4998,2.0,284.1873299,4.61061818,-99999.0,'11133222,11111222,99999999' 
TABS,ioos:station:wmo:42045:1,2006-03-04T01:30:00Z,26.2168,-96.4998,2.0,272.6758413,3.213502762,-99999.0,'11133222,11111222,99999999' 
TABS,ioos:station:wmo:42045:1,2006-03-04T02:00:00Z,26.2168,-96.4998,2.0,253.7021288,4.917601041,-99999.0,'11133222,11111222,99999999' 
TABS,ioos:station:wmo:42045:1,2006-03-04T02:30:00Z,26.2168,-96.4998,2.0,242.632419,6.069283318,-99999.0,'11133222,11111222,99999999' 
TABS,ioos:station:wmo:42045:1,2006-03-04T03:00:00Z,26.2168,-96.4998,2.0,230.1828091,6.496591414,-99999.0,'11133222,11111222,99999999' 
TABS,ioos:station:wmo:42045:1,2006-03-04T03:30:00Z,26.2168,-96.4998,2.0,217.2216019,8.464159734,-99999.0,'11133222,11111222,99999999' 
TABS,ioos:station:wmo:42045:1,2006-03-04T04:00:00Z,26.2168,-96.4998,2.0,218.2779909,7.974409069,-99999.0,'11133222,11111222,99999999' 
TABS,ioos:station:wmo:42045:1,2006-03-04T04:30:00Z,26.2168,-96.4998,2.0,232.0732054,7.809327756,-99999.0,'11133222,11111222,99999999' 
TABS,ioos:station:wmo:42045:1,2006-03-04T05:00:00Z,26.2168,-96.4998,2.0,226.38474,11.40896577,-99999.0,'11111222,11111222,99999999' 
TABS,ioos:station:wmo:42045:1,2006-03-04T05:30:00Z,26.2168,-96.4998,2.0,227.1037884,10.59253039,-99999.0,'11111222,11111222,99999999' 
TABS,ioos:station:wmo:42045:1,2006-03-04T06:00:00Z,26.2168,-96.4998,2.0,227.4924626,10.89268103,-99999.0,'11111222,11111222,99999999' 
TABS,ioos:station:wmo:42045:1,2006-03-04T06:30:00Z,26.2168,-96.4998,2.0,235.4254685,11.68337708,-99999.0,'11111222,11111222,99999999' 
TABS,ioos:station:wmo:42045:1,2006-03-04T07:00:00Z,26.2168,-96.4998,2.0,246.1996737,12.88581002,-99999.0,'11111222,11111222,99999999' 
TABS,ioos:station:wmo:42045:1,2006-03-04T07:30:00Z,26.2168,-96.4998,2.0,229.8699165,11.99340652,-99999.0,'11111222,11111222,99999999' 
TABS,ioos:station:wmo:42045:1,2006-03-04T08:00:00Z,26.2168,-96.4998,2.0,233.2861258,11.72604366,-99999.0,'11111222,11111222,99999999' 
TABS,ioos:station:wmo:42045:1,2006-03-04T08:30:00Z,26.2168,-96.4998,2.0,247.7390489,12.5125537,-99999.0,'11111222,11111222,99999999' 
TABS,ioos:station:wmo:42045:1,2006-03-04T09:00:00Z,26.2168,-96.4998,2.0,233.3783372,12.90812147,-99999.0,'11111222,11111222,99999999' 
TABS,ioos:station:wmo:42045:1,2006-03-04T09:30:00Z,26.2168,-96.4998,2.0,241.259851,13.43502884,-99999.0,'11111222,11111222,99999999' 
TABS,ioos:station:wmo:42045:1,2006-03-04T10:00:00Z,26.2168,-96.4998,2.0,242.1114204,13.16947987,-99999.0,'11111222,11111222,99999999' 
TABS,ioos:station:wmo:42045:1,2006-03-04T10:30:00Z,26.2168,-96.4998,2.0,229.0253101,12.99332521,-99999.0,'11111222,11111222,99999999' 
TABS,ioos:station:wmo:42045:1,2006-03-04T11:00:00Z,26.2168,-96.4998,2.0,230.9962857,11.98030467,-99999.0,'11111222,11111222,99999999' 
TABS,ioos:station:wmo:42045:1,2006-03-04T11:30:00Z,26.2168,-96.4998,2.0,237.188289,10.85121191,-99999.0,'11111222,11111222,99999999' 
TABS,ioos:station:wmo:42045:1,2006-03-04T12:00:00Z,26.2168,-96.4998,2.0,237.0869975,11.44729226,-99999.0,'11111222,11111222,99999999' 
TABS,ioos:station:wmo:42045:1,2006-03-04T12:30:00Z,26.2168,-96.4998,2.0,233.0731514,10.12000494,-99999.0,'11111222,11111222,99999999' 
TABS,ioos:station:wmo:42045:1,2006-03-04T13:00:00Z,26.2168,-96.4998,2.0,240.2779984,9.177330767,-99999.0,'11133222,11111222,99999999' 
TABS,ioos:station:wmo:42045:1,2006-03-04T13:30:00Z,26.2168,-96.4998,2.0,224.5962005,10.04116527,-99999.0,'11111222,11111222,99999999' 
TABS,ioos:station:wmo:42045:1,2006-03-04T14:00:00Z,26.2168,-96.4998,2.0,229.0145457,10.20029902,-99999.0,'11111222,11111222,99999999' 
TABS,ioos:station:wmo:42045:1,2006-03-04T14:30:00Z,26.2168,-96.4998,2.0,216.4010723,8.56028621,-99999.0,'11133222,11111222,99999999' 
TABS,ioos:station:wmo:42045:1,2006-03-04T15:00:00Z,26.2168,-96.4998,2.0,223.9055537,9.257715701,-99999.0,'11133222,11111222,99999999' 
TABS,ioos:station:wmo:42045:1,2006-03-04T15:30:00Z,26.2168,-96.4998,2.0,219.884831,7.376211765,-99999.0,'11133222,11111222,99999999' 
TABS,ioos:station:wmo:42045:1,2006-03-04T16:00:00Z,26.2168,-96.4998,2.0,212.6432972,7.137408493,-99999.0,'11133222,11111222,99999999' 
TABS,ioos:station:wmo:42045:1,2006-03-04T16:30:00Z,26.2168,-96.4998,2.0,217.237197,6.858141148,-99999.0,'11133222,11111222,99999999' 
TABS,ioos:station:wmo:42045:1,2006-03-04T17:00:00Z,26.2168,-96.4998,2.0,214.2839047,8.024169739,-99999.0,'11133222,11111222,99999999' 
TABS,ioos:station:wmo:42045:1,2006-03-04T17:30:00Z,26.2168,-96.4998,2.0,226.8052538,8.07917075,-99999.0,'11133222,11111222,99999999' 
TABS,ioos:station:wmo:42045:1,2006-03-04T18:00:00Z,26.2168,-96.4998,2.0,215.1779698,6.300745988,-99999.0,'11133222,11111222,99999999' 
TABS,ioos:station:wmo:42045:1,2006-03-04T18:30:00Z,26.2168,-96.4998,2.0,207.4004743,5.519202841,-99999.0,'11133222,11111222,99999999' 
TABS,ioos:station:wmo:42045:1,2006-03-04T19:00:00Z,26.2168,-96.4998,2.0,210.2230982,6.237924334,-99999.0,'11133222,11111222,99999999' 